Weather in Krasnoe

Ukraine / Lviv District     48°56′39″N   23°09′49″E
temp.,
°C
wind,
m/s
gust,
m/s
humid.,
%
clouds,
%
prec.,
mm/h
press.,
hPa
HPBL,
m
21 january, fri
fri2123:00−9w5129280 0.0 1015847
02:00−8w41291100 0.1 10161003
05:00−10wsw399390 0.1 1017430
08:00−12wsw31097100 0.1 1019439
11:00−7w5118282 0.0 10181025
14:00−6w51186100 0.3 10171161
17:00−7w51193100 0.8 10171186
20:00−8wnw499396 1.6 1017917
22 january, sat
sat2223:00−9w3994100 0.4 1018656
02:00−9wsw2795100 1.3 1017561
05:00−9w2796100 0.8 1017535
08:00−12sw219898 1.0 101835
11:00−8wsw2890100 0.4 1018671
14:00−6nw31194100 3.1 10181245
17:00−7nnw41094100 2.3 1021903
20:00−8nnw3995100 3.1 1024935
23 january, sun
sun2323:00−8nnw41194100 0.7 10251062
02:00−7nw31095100 1.5 1024983
05:00−7nnw31195100 1.6 10241297
08:00−7nnw41095100 3.3 10261033
11:00−7n51092100 1.3 10271022
14:00−6n3894100 2.6 10271018
17:00−8nne4995100 1.4 1029848
20:00−10ne3109498 2.1 1032618
24 january, mon
mon2423:00−14nne229996 0.2 103532
02:00−17ne1110096 0.3 103710
05:00−19ne11100100 0.1 103810
08:00−20nne00100100 0.1 104010
11:00−10nne119022 0.0 1037166
14:00−7nne12795 0.0 1035382
17:00−13nne119610 0.0 103710
20:00−18s1110080 0.0 10399
25 january, tue
tue2523:00−19s119812 0.0 103910
02:00−19ssw118892 0.0 103910
05:00−19ssw2188100 0.0 103811
08:00−18ssw2289100 0.0 103716
11:00−9ssw2393100 0.3 1033195
14:00−7ssw2394100 1.6 1030278
17:00−7ssw2496100 1.1 1030248
20:00−9ssw2396100 2.3 1030150